Tracking 30058 objects as of 10-Dec-2024
HD Live streaming from Space Station
objects crossing your sky now

STARLINK-31973

Track STARLINK-31973 now!
10-day predictions
STARLINK-31973 is classified as:


NORAD ID: 59943
Int'l Code: 2024-106X
Perigee: 449.6 km
Apogee: 452.7 km
Inclination: 43.0 °
Period: 93.5 minutes
Semi major axis: 6822 km
RCS: Unknown
Launch date: June 1, 2024
Source: United States (US)
Launch site: AIR FORCE EASTERN TEST RANGE (AFETR)
Your satellite tracking list
Your tracking list is empty




NASA's NSSDC Master Catalog

Two Line Element Set (TLE):
1 59943U 24106X   24344.84590470  .00000090  00000-0  94306-5 0  9993
2 59943  43.0011  32.2103 0002250 263.9212  96.1388 15.40702526 30837
Source of the keplerian elements: AFSPC